星链-5441 (STARLINK-5441 )

导读 | 豆包AI

STARLINK-5441是美国SpaceX公司于2022年12月17日发射的星链低轨互联网卫星,属于全球规模最大的卫星星座计划的组成部分。它部署在近地轨道,依托星链网络架构,为全球提供低延迟高速互联网服务,可覆盖偏远区域,同时服务民用宽带、特殊场景通信等需求,推动了全球互联覆盖范围的拓展。

Basic Information
目录编号:
54787
目录名称:
STARLINK-5441
国际标识:
2022-175AF
轨道中心:
EARTH
卫星名称:
星链-5441
卫星全名:
星链-5441 (STARLINK-5441 )
卫星状态:
在轨 (已飞行1184 天)
发射日期:
2022-12-17 UTC
国别 :
美国 (US)
星等 :
--
Orbit Information
数据来源 国际轨道数据 AOE轨道数据
星历时间 2026-03-15T11:00:55+0800
10小时前
查看轨道信息
2026-03-08T22:00:00+0800
6天前
查看轨道信息
半长轴 6917.871km 6917.874km
偏心率 0.000131 0.0001263
轨道倾角 53.219° 53.218°
近地点辐角 91.923° 90.216°
升交点赤经 19.436° 48.808°
平近点角 268.191° 353.938°
近地点 538.827km 538.863km
远地点 540.641km 540.611km
周期 95.437分钟 95.437分钟
每日圈数 15.088433 15.088422
Detailed Information
固有亮度:
5
最大亮度:
2.5
卫星平台:
Starlink v1.5
覆盖范围:
全球
运营商:
太空探索技术公司
运营商所在国:
美国
制造商(研发单位):
太空探索技术公司
制造商所在国:
美国
使用方式:
暂无
Satellite Introduction
星链(Starlink)计划是由太空探索技术公司(SpaceX)提出的一个巨型低轨卫星互联网星座项目,计划在2019年至2024年间在太空搭建由约1.2万颗卫星组成的“星链”网络,其中1584颗将部署在地球上空550千米处的近地轨道,并从2020年开始工作。该卫星仍在工作。
2D Orbit Map
3D Orbit Map
Orbit Altitude Analysis Chart
Orbit Inclination Analysis Chart
Orbit Comprehensive Analysis Chart
View Comprehensive Chart